This is the latest recevied weather packets stored in our database for station/object WD0REW. If no packets are shown the sender has not sent any weather packets the latest 10 day(s).
| Time | Temp. | Humidity | Pressure | Rain* | Wind** | Luminosity | Snow |
|---|---|---|---|---|---|---|---|
| 1777394895 | 16.11° C | 79% | 1015.3 hPa | 3.05 mm | - | 3 W/m² | - |
| 1777394590 | 16.67° C | 73% | 1014.1 hPa | 0 mm | - | 2 W/m² | - |
| 1777394288 | 16.67° C | 74% | 1013.6 hPa | 0 mm | - | 14 W/m² | - |
| 1777393984 | 16.67° C | 73% | 1013.9 hPa | 0 mm | - | 25 W/m² | - |
| 1777393683 | 17.22° C | 72% | 1015 hPa | 0 mm | - | 40 W/m² | - |
| 1777393379 | 17.78° C | 70% | 1015.4 hPa | 0 mm | - | 69 W/m² | - |
| 1777393075 | 17.78° C | 70% | 1015.5 hPa | 0 mm | - | 110 W/m² | - |
| 1777392771 | 17.78° C | 69% | 1015.8 hPa | 0 mm | - | 86 W/m² | - |
| 1777392467 | 18.89° C | 66% | 1015.7 hPa | 0 mm | - | 149 W/m² | - |
| 1777392163 | 18.89° C | 71% | 1015.2 hPa | 0 mm | - | 448 W/m² | - |
| 1777391858 | 17.78° C | 71% | 1015.7 hPa | 0 mm | - | 690 W/m² | - |
| 1777391553 | 18.33° C | 68% | 1016.3 hPa | 0 mm | - | 335 W/m² | - |
| 1777391250 | 18.33° C | 72% | 1016.1 hPa | 0 mm | - | 441 W/m² | - |
| 1777390947 | 17.78° C | 70% | 1016.1 hPa | 0 mm | - | 490 W/m² | - |
| 1777390643 | 17.78° C | 69% | 1016.4 hPa | 0 mm | - | 296 W/m² | - |
| 1777390340 | 17.78° C | 71% | 1016.4 hPa | 0 mm | - | 524 W/m² | - |
| 1777390035 | 18.33° C | 70% | 1016.3 hPa | 0 mm | - | 572 W/m² | - |
| 1777389733 | 17.22° C | 70% | 1016.3 hPa | 0 mm | - | 565 W/m² | - |
| 1777389429 | 17.22° C | 70% | 1016.4 hPa | 0 mm | - | 554 W/m² | - |
| 1777389127 | 16.67° C | 72% | 1016.3 hPa | 0 mm | - | 545 W/m² | - |
| 1777388824 | 16.67° C | 70% | 1016.2 hPa | 0 mm | - | 486 W/m² | - |
| 1777388521 | 17.22° C | 70% | 1016.4 hPa | 0 mm | - | 524 W/m² | - |
| 1777388216 | 16.67° C | 71% | 1016.4 hPa | 0 mm | - | 361 W/m² | - |
| 1777387911 | 16.67° C | 71% | 1016.6 hPa | 0 mm | - | 494 W/m² | - |
| 1777387609 | 16.67° C | 68% | 1016.6 hPa | 0 mm | - | 472 W/m² | - |
* Rain latest hour (hover to see other rain measurements)
** Current wind speed in m/s (hover to see current wind gust speed)